Location: Newark
(48.9886°N, 1.2358°E)
Time: 15:28:10
(UTC+00:00)

Transit 4A - Pass Details

Date: 19 November 2019
Orbit: 870 x 975 km, 66.8° (Epoch: 08 December)

Event Time Altitude Azimuth Distance (km) Brightness Sun altitude
Exits shadow 03:34:49 17° 7° (N) 2,146 9.9 -34.9°
Maximum altitude 03:35:42 17° 18° (NNE) 2,113 10.0 -34.8°
Drops below altitude 10° 03:39:28 10° 58° (ENE) 2,555 10.9 -34.2°
Sets 03:42:55 0° 78° (ENE) 3,477 12.0 -33.6°
